User: anonymous   Login
Location: Lawrence
(38.9720°N, 95.2350°W)
Time: 01:52:55
(UTC-05:00)
Language:

ALOS - Orbit

View from above orbital plane
View from above orbital plane
View from above satellite
View from above satellite

Ground track
Ground track

The orbit data is extracted from the following two-line orbital elements,

1 28931U 06002A   17174.98049539 +.00000147 +00000-0 +37665-4 0  9991
2 28931 097.8433 201.9971 0000772 049.1335 310.9955 14.62362662608452
Epoch (UTC): 23 June 2017 23:31:54
Eccentricity: 0.0000772
inclination: 97.8433°
perigee height: 685 km
apogee height: 686 km
right ascension of ascending node: 201.9971°
argument of perigee: 49.1335°
revolutions per day: 14.62362662
mean anomaly at epoch: 310.9955°
orbit number at epoch: 60845

The dashed part of the orbit path shows where the satellite is in the earth's shadow,  

DLR